Location: Unspecified
(54.1780°N, 0.0000°E)
Time: 03:15:43
(UTC+00:00)

Explorer 7 - Pass Details

Date: 26 June 2019
Orbit: 485 x 680 km, 50.3° (Epoch: 23 July)

Event Time Altitude Azimuth Distance (km) Brightness Sun altitude
Rises 07:20:38 0° 211° (SSW) 2,708 10.1 30.0°
Reaches altitude 10° 07:23:13 10° 195° (SSW) 1,856 9.5 30.4°
Maximum altitude 07:26:25 21° 146° (SE) 1,342 9.5 30.9°
Drops below altitude 10° 07:29:44 10° 98° (E) 1,957 11.2 31.4°
Sets 07:32:33 0° 82° (E) 2,905 11.6 31.8°
